STARLINK-1636, 46153

Orbit data source: Space-Track

STARLINK-1636, 46153 is a payload satellite owned by SpaceX/Seattle (US) in LEO that was launched on Tue, 18 Aug 2020 UTC via an FALCON 9 launch vehicle from the Air Force Eastern Test Range (AFETR). Payload-class satellites include a variety of spacecraft equipped with specific instruments for various scientific and technological missions. These include communications satellites like Starlink; space stations such as the ISS; scientific satellites like the Hubble; Earth observation satellites from companies like Planet Labs, Umbra, and HawkEye 360; GPS; miniature CubeSats for education and research; and military/defense satellites.

Loading next visibility...
Identifier
46153, 2020-057AN
Orbit
LEO
Last TLE update
10 hours ago
Origin
Manufacturer
SpaceX/Seattle
Mission
Partially operational Commercial Communications
Bus & Motor
STARLINK, Unknown motor
Mass
260 kg wet, ~248 kg dry
Launch date (UTC)
2020-08-18 (5 years ago)
Launch vehicle
FALCON 9
Launch site
Air Force Eastern Test Range (AFETR)
Object type
Payload
Rocket body
Debris
Shape & HBR
Box + 1 Pan, 8.86 m
Radar Cross Section
13.562 m², Large (>1 m²)

Expand to show TLE details & history

TLE from 10 hours ago
0 STARLINK-1636
1 46153U 20057AN  25189.91668981  .00091427  00000-0  11219-2 0  9995
2 46153  53.0266 272.4645 0008705 300.7720 270.2728 15.59544115  5779
Epoch: 2025-07-08T22:00Z
TLE epoch observation values (Epoch: 2025-07-08T22:00:01.999Z)
Latitude
-24.45355°
Longitude
-144.74535°
Altitude
396.019 km
Speed
7.673 km/s
True Right ascension
07h 29m 28s
True Declination
-24° 19' 02"
Sunlit
Object was in daylight at epoch
Visualization orbit readout
Latitude
-51.98338°
Longitude
-59.84226°
Altitude
401.31 km
Speed
7.673 km/s
Apparent Right ascension
10h 09m 21s
Apparent Declination
-53° 48' 34"
Sunlit
Object is in daylight
Visualization observer readout
Local Sidereal Time
19:40:58
Azimuth
228.347° WSW
Elevation
-61.533°
Doppler factor
1
Orbital elements
Apogee altitude
395.148 km
Perigee altitude
383.366 km
Semi-major axis
6,767.394 km
Eccentricity
0.00087
Inclination
53.0266°
RAAN
272.4645°
Arg. of periapsis
300.772°
True anomaly
Unknown
Mean anomaly
270.2728°
Eccentric anomaly
Unknown
Mean motion
3.89862 °/min
Orbital period
92.34 mins
BSTAR
0.0011219
Loading maneuver chart data...
Loading SW <> Apogee altitude chart data...
Loading historical data...
Loading historical data...
Loading historical data...
Loading historical data...
Loading historical data...
Loading historical data...
Loading historical data...

STARLINK-1636 Visibility forecast

Observer location: undefined°, undefined°

Span
Click to sort rows by Start time (UTC) header in descending order
Start Az.
Max El. time (UTC)
Max El. Az.
Max El.
End time (UTC)
End Az.
5 mins2025-07-09 08:02:27.743Z207.02° SW2025-07-09 08:04:27.743Z153.461° SSE36.201°2025-07-09 08:07:27.743Z61.677° ENE
5 mins2025-07-09 14:29:27.743Z327.526° NNW2025-07-09 14:31:27.743Z10.463° NNE29.495°2025-07-09 14:34:27.743Z100.105° ESE
|